Year,Month,Day,Hour,Minute,Value (Times are PST for temperature in C)
2010,03,24,00,00,3.70
2010,03,24,00,01,3.70
2010,03,24,00,02,3.70
2010,03,24,00,03,3.70
2010,03,24,00,04,3.70
2010,03,24,00,05,3.60
2010,03,24,00,06,3.60
2010,03,24,00,07,3.60
2010,03,24,00,08,3.60
2010,03,24,00,09,3.60
2010,03,24,00,10,3.60
2010,03,24,00,11,3.60
2010,03,24,00,12,3.60
2010,03,24,00,13,3.60
2010,03,24,00,14,3.60
2010,03,24,00,15,3.60
2010,03,24,00,16,3.60
2010,03,24,00,17,3.60
2010,03,24,00,18,3.60
2010,03,24,00,19,3.60
2010,03,24,00,20,3.60
2010,03,24,00,21,3.60
2010,03,24,00,22,3.60
2010,03,24,00,23,3.60
2010,03,24,00,24,3.60
2010,03,24,00,25,3.60
2010,03,24,00,26,3.60
2010,03,24,00,27,3.60
2010,03,24,00,28,3.60
2010,03,24,00,29,3.60
2010,03,24,00,30,3.60
2010,03,24,00,31,3.50
2010,03,24,00,32,3.50
2010,03,24,00,33,3.50
2010,03,24,00,34,3.50
2010,03,24,00,35,3.50
2010,03,24,00,36,3.40
2010,03,24,00,37,3.40
2010,03,24,00,38,3.40
2010,03,24,00,39,3.40
2010,03,24,00,40,3.40
2010,03,24,00,41,3.40
2010,03,24,00,42,3.40
2010,03,24,00,43,3.40
2010,03,24,00,44,3.40
2010,03,24,00,45,3.40
2010,03,24,00,46,3.30
2010,03,24,00,47,3.30
2010,03,24,00,48,3.30
2010,03,24,00,49,3.30
2010,03,24,00,50,3.30
2010,03,24,00,51,3.30
2010,03,24,00,52,3.30
2010,03,24,00,53,3.30
2010,03,24,00,54,3.30
2010,03,24,00,55,3.30
2010,03,24,00,56,3.20
2010,03,24,00,57,3.20
2010,03,24,00,58,3.20
2010,03,24,00,59,3.20
2010,03,24,01,00,3.20
2010,03,24,01,01,3.20
2010,03,24,01,02,3.20
2010,03,24,01,03,3.20
2010,03,24,01,04,3.20
2010,03,24,01,05,3.20
2010,03,24,01,06,3.20
2010,03,24,01,07,3.20
2010,03,24,01,08,3.10
2010,03,24,01,09,3.10
2010,03,24,01,10,3.10
2010,03,24,01,11,3.10
2010,03,24,01,12,3.10
2010,03,24,01,13,3.10
2010,03,24,01,14,3.10
2010,03,24,01,15,3.10
2010,03,24,01,16,3.10
2010,03,24,01,17,3.10
2010,03,24,01,18,3.10
2010,03,24,01,19,3.10
2010,03,24,01,20,3.10
2010,03,24,01,21,3.10
2010,03,24,01,22,3.10
2010,03,24,01,23,3.10
2010,03,24,01,24,3.10
2010,03,24,01,25,3.00
2010,03,24,01,26,3.10
2010,03,24,01,27,3.10
2010,03,24,01,28,3.10
2010,03,24,01,29,3.10
2010,03,24,01,30,3.10
2010,03,24,01,31,3.10
2010,03,24,01,32,3.10
2010,03,24,01,33,3.10
2010,03,24,01,34,3.10
2010,03,24,01,35,3.10
2010,03,24,01,36,3.10
2010,03,24,01,37,3.10
2010,03,24,01,38,3.10
2010,03,24,01,39,3.10
2010,03,24,01,40,3.10
2010,03,24,01,41,3.10
2010,03,24,01,42,3.10
2010,03,24,01,43,3.10
2010,03,24,01,44,3.10
2010,03,24,01,45,3.10
2010,03,24,01,46,3.10
2010,03,24,01,47,3.10
2010,03,24,01,48,3.10
2010,03,24,01,49,3.00
2010,03,24,01,50,3.00
2010,03,24,01,51,3.00
2010,03,24,01,52,3.00
2010,03,24,01,53,3.00
2010,03,24,01,54,3.00
2010,03,24,01,55,3.00
2010,03,24,01,56,3.00
2010,03,24,01,57,3.00
2010,03,24,01,58,3.00
2010,03,24,01,59,3.00
2010,03,24,02,00,3.00
2010,03,24,02,01,3.10
2010,03,24,02,02,3.00
2010,03,24,02,03,3.00
2010,03,24,02,04,3.00
2010,03,24,02,05,3.00
2010,03,24,02,06,3.00
2010,03,24,02,07,3.00
2010,03,24,02,08,3.00
2010,03,24,02,09,3.00
2010,03,24,02,10,3.00
2010,03,24,02,11,3.00
2010,03,24,02,12,3.00
2010,03,24,02,13,3.00
2010,03,24,02,14,3.00
2010,03,24,02,15,3.00
2010,03,24,02,16,3.00
2010,03,24,02,17,3.00
2010,03,24,02,18,3.00
2010,03,24,02,19,3.00
2010,03,24,02,20,3.00
2010,03,24,02,21,3.00
2010,03,24,02,22,3.00
2010,03,24,02,23,3.00
2010,03,24,02,24,3.00
2010,03,24,02,25,3.10
2010,03,24,02,26,3.00
2010,03,24,02,27,3.00
2010,03,24,02,28,3.00
2010,03,24,02,29,3.00
2010,03,24,02,30,3.00
2010,03,24,02,31,3.00
2010,03,24,02,32,3.00
2010,03,24,02,33,3.00
2010,03,24,02,34,3.00
2010,03,24,02,35,3.00
2010,03,24,02,36,3.00
2010,03,24,02,37,3.00
2010,03,24,02,38,3.00
2010,03,24,02,39,3.10
2010,03,24,02,40,3.10
2010,03,24,02,41,3.10
2010,03,24,02,42,3.10
2010,03,24,02,43,3.10
2010,03,24,02,44,3.10
2010,03,24,02,45,3.10
2010,03,24,02,46,3.10
2010,03,24,02,47,3.10
2010,03,24,02,48,3.10
2010,03,24,02,49,3.10
2010,03,24,02,50,3.10
2010,03,24,02,51,3.10
2010,03,24,02,52,3.10
2010,03,24,02,53,3.10
2010,03,24,02,54,3.10
2010,03,24,02,55,3.10
2010,03,24,02,56,3.10
2010,03,24,02,57,3.10
2010,03,24,02,58,3.10
2010,03,24,02,59,3.10
2010,03,24,03,00,3.20
2010,03,24,03,01,3.20
2010,03,24,03,02,3.20
2010,03,24,03,03,3.20
2010,03,24,03,04,3.20
2010,03,24,03,05,3.20
2010,03,24,03,06,3.20
2010,03,24,03,07,3.20
2010,03,24,03,08,3.20
2010,03,24,03,09,3.20
2010,03,24,03,10,3.20
2010,03,24,03,11,3.20
2010,03,24,03,12,3.10
2010,03,24,03,13,3.10
2010,03,24,03,14,3.10
2010,03,24,03,15,3.10
2010,03,24,03,16,3.10
2010,03,24,03,17,3.10
2010,03,24,03,18,3.10
2010,03,24,03,19,3.00
2010,03,24,03,20,3.00
2010,03,24,03,21,3.00
2010,03,24,03,22,3.00
2010,03,24,03,23,3.00
2010,03,24,03,24,3.00
2010,03,24,03,25,3.00
2010,03,24,03,26,3.00
2010,03,24,03,27,2.90
2010,03,24,03,28,2.90
2010,03,24,03,29,2.90
2010,03,24,03,30,2.90
2010,03,24,03,31,2.90
2010,03,24,03,32,2.90
2010,03,24,03,33,2.90
2010,03,24,03,34,2.90
2010,03,24,03,35,2.90
2010,03,24,03,36,2.90
2010,03,24,03,37,2.90
2010,03,24,03,38,2.90
2010,03,24,03,39,2.90
2010,03,24,03,40,2.90
2010,03,24,03,41,2.90
2010,03,24,03,42,2.80
2010,03,24,03,43,2.80
2010,03,24,03,44,2.80
2010,03,24,03,45,2.80
2010,03,24,03,46,2.80
2010,03,24,03,47,2.80
2010,03,24,03,48,2.80
2010,03,24,03,49,2.70
2010,03,24,03,50,2.70
2010,03,24,03,51,2.70
2010,03,24,03,52,2.70
2010,03,24,03,53,2.70
2010,03,24,03,54,2.70
2010,03,24,03,55,2.70
2010,03,24,03,56,2.70
2010,03,24,03,57,2.70
2010,03,24,03,58,2.70
2010,03,24,03,59,2.70
2010,03,24,04,00,2.70
2010,03,24,04,01,2.70
2010,03,24,04,02,2.70
2010,03,24,04,03,2.70
2010,03,24,04,04,2.70
2010,03,24,04,05,2.70
2010,03,24,04,06,2.70
2010,03,24,04,07,2.70
2010,03,24,04,08,2.70
2010,03,24,04,09,2.70
2010,03,24,04,10,2.70
2010,03,24,04,11,2.70
2010,03,24,04,12,2.70
2010,03,24,04,13,2.70
2010,03,24,04,14,2.70
2010,03,24,04,15,2.70
2010,03,24,04,16,2.70
2010,03,24,04,17,2.70
2010,03,24,04,18,2.70
2010,03,24,04,19,2.70
2010,03,24,04,20,2.70
2010,03,24,04,21,2.70
2010,03,24,04,22,2.70
2010,03,24,04,23,2.70
2010,03,24,04,24,2.70
2010,03,24,04,25,2.70
2010,03,24,04,26,2.70
2010,03,24,04,27,2.70
2010,03,24,04,28,2.60
2010,03,24,04,29,2.60
2010,03,24,04,30,2.60
2010,03,24,04,31,2.60
2010,03,24,04,32,2.50
2010,03,24,04,33,2.50
2010,03,24,04,34,2.50
2010,03,24,04,35,2.40
2010,03,24,04,36,2.40
2010,03,24,04,37,2.40
2010,03,24,04,38,2.40
2010,03,24,04,39,2.40
2010,03,24,04,40,2.40
2010,03,24,04,41,2.30
2010,03,24,04,42,2.30
2010,03,24,04,43,2.30
2010,03,24,04,44,2.30
2010,03,24,04,45,2.30
2010,03,24,04,46,2.30
2010,03,24,04,47,2.30
2010,03,24,04,48,2.30
2010,03,24,04,49,2.30
2010,03,24,04,50,2.30
2010,03,24,04,51,2.30
2010,03,24,04,52,2.30
2010,03,24,04,53,2.30
2010,03,24,04,54,2.30
2010,03,24,04,55,2.30
2010,03,24,04,56,2.30
2010,03,24,04,57,2.30
2010,03,24,04,58,2.30
2010,03,24,04,59,2.30
2010,03,24,05,00,2.30
2010,03,24,05,01,2.30
2010,03,24,05,02,2.20
2010,03,24,05,03,2.20
2010,03,24,05,04,2.20
2010,03,24,05,05,2.20
2010,03,24,05,06,2.20
2010,03,24,05,07,2.20
2010,03,24,05,08,2.20
2010,03,24,05,09,2.20
2010,03,24,05,10,2.20
2010,03,24,05,11,2.20
2010,03,24,05,12,2.20
2010,03,24,05,13,2.20
2010,03,24,05,14,2.20
2010,03,24,05,15,2.20
2010,03,24,05,16,2.20
2010,03,24,05,17,2.20
2010,03,24,05,18,2.20
2010,03,24,05,19,2.20
2010,03,24,05,20,2.20
2010,03,24,05,21,2.20
2010,03,24,05,22,2.20
2010,03,24,05,23,2.20
2010,03,24,05,24,2.20
2010,03,24,05,25,2.20
2010,03,24,05,26,2.20
2010,03,24,05,27,2.20
2010,03,24,05,28,2.20
2010,03,24,05,29,2.20
2010,03,24,05,30,2.20
2010,03,24,05,31,2.20
2010,03,24,05,32,2.20
2010,03,24,05,33,2.20
2010,03,24,05,34,2.20
2010,03,24,05,35,2.20
2010,03,24,05,36,2.20
2010,03,24,05,37,2.20
2010,03,24,05,38,2.10
2010,03,24,05,39,2.10
2010,03,24,05,40,2.10
2010,03,24,05,41,2.10
2010,03,24,05,42,2.10
2010,03,24,05,43,2.10
2010,03,24,05,44,2.10
2010,03,24,05,45,2.10
2010,03,24,05,46,2.10
2010,03,24,05,47,2.10
2010,03,24,05,48,2.10
2010,03,24,05,49,2.10
2010,03,24,05,50,2.10
2010,03,24,05,51,2.10
2010,03,24,05,52,2.10
2010,03,24,05,53,2.00
2010,03,24,05,54,2.00
2010,03,24,05,55,2.00
2010,03,24,05,56,2.00
2010,03,24,05,57,2.00
2010,03,24,05,58,2.00
2010,03,24,05,59,1.90
2010,03,24,06,00,1.90
2010,03,24,06,01,1.90
2010,03,24,06,02,1.90
2010,03,24,06,03,1.90
2010,03,24,06,04,1.90
2010,03,24,06,05,1.90
2010,03,24,06,06,1.90
2010,03,24,06,07,1.90
2010,03,24,06,08,1.90
2010,03,24,06,09,1.90
2010,03,24,06,10,1.90
2010,03,24,06,11,2.00
2010,03,24,06,12,2.00
2010,03,24,06,13,2.00
2010,03,24,06,14,2.00
2010,03,24,06,15,2.00
2010,03,24,06,16,2.00
2010,03,24,06,17,2.00
2010,03,24,06,18,2.00
2010,03,24,06,19,2.00
2010,03,24,06,20,2.00
2010,03,24,06,21,2.00
2010,03,24,06,22,2.00
2010,03,24,06,23,1.90
2010,03,24,06,24,2.00
2010,03,24,06,25,1.90
2010,03,24,06,26,1.90
2010,03,24,06,27,1.90
2010,03,24,06,28,1.90
2010,03,24,06,29,1.90
2010,03,24,06,30,1.90
2010,03,24,06,31,1.90
2010,03,24,06,32,1.90
2010,03,24,06,33,2.00
2010,03,24,06,34,2.00
2010,03,24,06,35,2.00
2010,03,24,06,36,2.00
2010,03,24,06,37,2.00
2010,03,24,06,38,2.10
2010,03,24,06,39,2.10
2010,03,24,06,40,2.10
2010,03,24,06,41,2.10
2010,03,24,06,42,2.00
2010,03,24,06,43,2.00
2010,03,24,06,44,2.00
2010,03,24,06,45,2.00
2010,03,24,06,46,2.00
2010,03,24,06,47,2.00
2010,03,24,06,48,2.00
2010,03,24,06,49,2.00
2010,03,24,06,50,2.00
2010,03,24,06,51,2.00
2010,03,24,06,52,2.00
2010,03,24,06,53,2.00
2010,03,24,06,54,2.00
2010,03,24,06,55,2.00
2010,03,24,06,56,2.00
2010,03,24,06,57,2.00
2010,03,24,06,58,2.00
2010,03,24,06,59,2.00
2010,03,24,07,00,2.00
2010,03,24,07,01,2.00
2010,03,24,07,02,2.00
2010,03,24,07,03,2.00
2010,03,24,07,04,2.00
2010,03,24,07,05,2.00
2010,03,24,07,06,2.00
2010,03,24,07,07,2.00
2010,03,24,07,08,2.00
2010,03,24,07,09,2.00
2010,03,24,07,10,2.10
2010,03,24,07,11,2.10
2010,03,24,07,12,2.00
2010,03,24,07,13,2.00
2010,03,24,07,14,2.00
2010,03,24,07,15,2.00
2010,03,24,07,16,2.00
2010,03,24,07,17,2.00
2010,03,24,07,18,2.00
2010,03,24,07,19,1.90
2010,03,24,07,20,2.00
2010,03,24,07,21,2.00
2010,03,24,07,22,2.00
2010,03,24,07,23,1.90
2010,03,24,07,24,1.90
2010,03,24,07,25,1.90
2010,03,24,07,26,1.90
2010,03,24,07,27,1.90
2010,03,24,07,28,1.90
2010,03,24,07,29,1.90
2010,03,24,07,30,1.90
2010,03,24,07,31,1.90
2010,03,24,07,32,1.90
2010,03,24,07,33,1.90
2010,03,24,07,34,1.90
2010,03,24,07,35,1.90
2010,03,24,07,36,1.90
2010,03,24,07,37,1.90
2010,03,24,07,38,1.90
2010,03,24,07,39,1.90
2010,03,24,07,40,1.90
2010,03,24,07,41,1.90
2010,03,24,07,42,1.90
2010,03,24,07,43,1.90
2010,03,24,07,44,1.90
2010,03,24,07,45,1.90
2010,03,24,07,46,1.90
2010,03,24,07,47,1.90
2010,03,24,07,48,1.90
2010,03,24,07,49,1.90
2010,03,24,07,50,2.00
2010,03,24,07,51,2.00
2010,03,24,07,52,2.00
2010,03,24,07,53,2.10
2010,03,24,07,54,2.10
2010,03,24,07,55,2.20
2010,03,24,07,56,2.20
2010,03,24,07,57,2.20
2010,03,24,07,58,2.20
2010,03,24,07,59,2.20
2010,03,24,08,00,2.20
2010,03,24,08,01,2.20
2010,03,24,08,02,2.30
2010,03,24,08,03,2.30
2010,03,24,08,04,2.30
2010,03,24,08,05,2.40
2010,03,24,08,06,2.40
2010,03,24,08,07,2.40
2010,03,24,08,08,2.50
2010,03,24,08,09,2.50
2010,03,24,08,10,2.50
2010,03,24,08,11,2.50
2010,03,24,08,12,2.50
2010,03,24,08,13,2.50
2010,03,24,08,14,2.50
2010,03,24,08,15,2.50
2010,03,24,08,16,2.50
2010,03,24,08,17,2.50
2010,03,24,08,18,2.50
2010,03,24,08,19,2.50
2010,03,24,08,20,2.50
2010,03,24,08,21,2.50
2010,03,24,08,22,2.50
2010,03,24,08,23,2.50
2010,03,24,08,24,2.50
2010,03,24,08,25,2.50
2010,03,24,08,26,2.60
2010,03,24,08,27,2.60
2010,03,24,08,28,2.60
2010,03,24,08,29,2.60
2010,03,24,08,30,2.60
2010,03,24,08,31,2.70
2010,03,24,08,32,2.70
2010,03,24,08,33,2.70
2010,03,24,08,34,2.70
2010,03,24,08,35,2.70
2010,03,24,08,36,2.80
2010,03,24,08,37,2.80
2010,03,24,08,38,2.80
2010,03,24,08,39,2.90
2010,03,24,08,40,2.90
2010,03,24,08,41,2.90
2010,03,24,08,42,3.00
2010,03,24,08,43,3.00
2010,03,24,08,44,3.00
2010,03,24,08,45,3.10
2010,03,24,08,46,3.10
2010,03,24,08,47,3.20
2010,03,24,08,48,3.20
2010,03,24,08,49,3.30
2010,03,24,08,50,3.40
2010,03,24,08,51,3.40
2010,03,24,08,52,3.50
2010,03,24,08,53,3.60
2010,03,24,08,54,3.60
2010,03,24,08,55,3.70
2010,03,24,08,56,3.70
2010,03,24,08,57,3.80
2010,03,24,08,58,3.90
2010,03,24,08,59,3.90
2010,03,24,09,00,4.00
2010,03,24,09,01,4.10
2010,03,24,09,02,4.20
2010,03,24,09,03,4.30
2010,03,24,09,04,4.40
2010,03,24,09,05,4.40
2010,03,24,09,06,4.50
2010,03,24,09,07,4.60
2010,03,24,09,08,4.70
2010,03,24,09,09,4.80
2010,03,24,09,10,4.80
2010,03,24,09,11,4.90
2010,03,24,09,12,5.00
2010,03,24,09,13,5.10
2010,03,24,09,14,5.10
2010,03,24,09,15,5.20
2010,03,24,09,16,5.20
2010,03,24,09,17,5.30
2010,03,24,09,18,5.30
2010,03,24,09,19,5.30
2010,03,24,09,20,5.30
2010,03,24,09,21,5.40
2010,03,24,09,22,5.40
2010,03,24,09,23,5.40
2010,03,24,09,24,5.40
2010,03,24,09,25,5.40
2010,03,24,09,26,5.40
2010,03,24,09,27,5.40
2010,03,24,09,28,5.40
2010,03,24,09,29,5.40
2010,03,24,09,30,5.50
2010,03,24,09,31,5.50
2010,03,24,09,32,5.50
2010,03,24,09,33,5.60
2010,03,24,09,34,5.60
2010,03,24,09,35,5.60
2010,03,24,09,36,5.60
2010,03,24,09,37,5.70
2010,03,24,09,38,5.70
2010,03,24,09,39,5.70
2010,03,24,09,40,5.80
2010,03,24,09,41,5.80
2010,03,24,09,42,5.80
2010,03,24,09,43,5.80
2010,03,24,09,44,5.80
2010,03,24,09,45,5.80
2010,03,24,09,46,5.90
2010,03,24,09,47,5.90
2010,03,24,09,48,5.90
2010,03,24,09,49,6.00
2010,03,24,09,50,6.00
2010,03,24,09,51,6.10
2010,03,24,09,52,6.10
2010,03,24,09,53,6.20
2010,03,24,09,54,6.30
2010,03,24,09,55,6.30
2010,03,24,09,56,6.40
2010,03,24,09,57,6.40
2010,03,24,09,58,6.50
2010,03,24,09,59,6.60
2010,03,24,10,00,6.60
2010,03,24,10,01,6.70
2010,03,24,10,02,6.70
2010,03,24,10,03,6.80
2010,03,24,10,04,6.80
2010,03,24,10,05,6.90
2010,03,24,10,06,6.90
2010,03,24,10,07,7.00
2010,03,24,10,08,7.00
2010,03,24,10,09,7.10
2010,03,24,10,10,7.10
2010,03,24,10,11,7.20
2010,03,24,10,12,7.30
2010,03,24,10,13,7.30
2010,03,24,10,14,7.40
2010,03,24,10,15,7.40
2010,03,24,10,16,7.40
2010,03,24,10,17,7.50
2010,03,24,10,18,7.50
2010,03,24,10,19,7.50
2010,03,24,10,20,7.60
2010,03,24,10,21,7.60
2010,03,24,10,22,7.60
2010,03,24,10,23,7.70
2010,03,24,10,24,7.70
2010,03,24,10,25,7.70
2010,03,24,10,26,7.70
2010,03,24,10,27,7.70
2010,03,24,10,28,7.70
2010,03,24,10,29,7.80
2010,03,24,10,30,7.80
2010,03,24,10,31,7.80
2010,03,24,10,32,7.90
2010,03,24,10,33,7.90
2010,03,24,10,34,8.00
2010,03,24,10,35,8.10
2010,03,24,10,36,8.10
2010,03,24,10,37,8.20
2010,03,24,10,38,8.20
2010,03,24,10,39,8.30
2010,03,24,10,40,8.30
2010,03,24,10,41,8.30
2010,03,24,10,42,8.40
2010,03,24,10,43,8.50
2010,03,24,10,44,8.50
2010,03,24,10,45,8.60
2010,03,24,10,46,8.70
2010,03,24,10,47,8.70
2010,03,24,10,48,8.70
2010,03,24,10,49,8.80
2010,03,24,10,50,8.80
2010,03,24,10,51,8.80
2010,03,24,10,52,8.80
2010,03,24,10,53,8.90
2010,03,24,10,54,8.90
2010,03,24,10,55,9.00
2010,03,24,10,56,9.00
2010,03,24,10,57,9.00
2010,03,24,10,58,9.10
2010,03,24,10,59,9.10
2010,03,24,11,00,9.10
2010,03,24,11,01,9.20
2010,03,24,11,02,9.20
2010,03,24,11,03,9.20
2010,03,24,11,04,9.30
2010,03,24,11,05,9.30
2010,03,24,11,06,9.40
2010,03,24,11,07,9.40
2010,03,24,11,08,9.40
2010,03,24,11,09,9.50
2010,03,24,11,10,9.60
2010,03,24,11,11,9.60
2010,03,24,11,12,9.60
2010,03,24,11,13,9.60
2010,03,24,11,14,9.70
2010,03,24,11,15,9.70
2010,03,24,11,16,9.70
2010,03,24,11,17,9.70
2010,03,24,11,18,9.80
2010,03,24,11,19,9.80
2010,03,24,11,20,9.80
2010,03,24,11,21,9.90
2010,03,24,11,22,10.00
2010,03,24,11,23,10.10
2010,03,24,11,24,10.10
2010,03,24,11,25,10.20
2010,03,24,11,26,10.30
2010,03,24,11,27,10.30
2010,03,24,11,28,10.40
2010,03,24,11,29,10.40
2010,03,24,11,30,10.50
2010,03,24,11,31,10.50
2010,03,24,11,32,10.60
2010,03,24,11,33,10.60
2010,03,24,11,34,10.60
2010,03,24,11,35,10.70
2010,03,24,11,36,10.70
2010,03,24,11,37,10.70
2010,03,24,11,38,10.70
2010,03,24,11,39,10.70
2010,03,24,11,40,10.70
2010,03,24,11,41,10.70
2010,03,24,11,42,10.70
2010,03,24,11,43,10.70
2010,03,24,11,44,10.70
2010,03,24,11,45,10.70
2010,03,24,11,46,10.70
2010,03,24,11,47,10.80
2010,03,24,11,48,10.80
2010,03,24,11,49,10.80
2010,03,24,11,50,10.80
2010,03,24,11,51,10.80
2010,03,24,11,52,10.90
2010,03,24,11,53,10.90
2010,03,24,11,54,10.90
2010,03,24,11,55,11.00
2010,03,24,11,56,11.00
2010,03,24,11,57,11.10
2010,03,24,11,58,11.10
2010,03,24,11,59,11.20
2010,03,24,12,00,11.20
2010,03,24,12,01,11.20
2010,03,24,12,02,11.20
2010,03,24,12,03,11.20
2010,03,24,12,04,11.10
2010,03,24,12,05,11.10
2010,03,24,12,06,11.00
2010,03,24,12,07,11.00
2010,03,24,12,08,10.90
2010,03,24,12,09,10.90
2010,03,24,12,10,11.00
2010,03,24,12,11,11.00
2010,03,24,12,12,11.10
2010,03,24,12,13,11.10
2010,03,24,12,14,11.20
2010,03,24,12,15,11.20
2010,03,24,12,16,11.30
2010,03,24,12,17,11.30
2010,03,24,12,18,11.30
2010,03,24,12,19,11.40
2010,03,24,12,20,11.30
2010,03,24,12,21,11.30
2010,03,24,12,22,11.30
2010,03,24,12,23,11.30
2010,03,24,12,24,11.30
2010,03,24,12,25,11.30
2010,03,24,12,26,11.30
2010,03,24,12,27,11.20
2010,03,24,12,28,11.20
2010,03,24,12,29,11.20
2010,03,24,12,30,11.20
2010,03,24,12,31,11.30
2010,03,24,12,32,11.30
2010,03,24,12,33,11.30
2010,03,24,12,34,11.30
2010,03,24,12,35,11.30
2010,03,24,12,36,11.20
2010,03,24,12,37,11.20
2010,03,24,12,38,11.20
2010,03,24,12,39,11.20
2010,03,24,12,40,11.20
2010,03,24,12,41,11.30
2010,03,24,12,42,11.30
2010,03,24,12,43,11.30
2010,03,24,12,44,11.40
2010,03,24,12,45,11.50
2010,03,24,12,46,11.50
2010,03,24,12,47,11.60
2010,03,24,12,48,11.70
2010,03,24,12,49,11.80
2010,03,24,12,50,11.80
2010,03,24,12,51,11.90
2010,03,24,12,52,11.90
2010,03,24,12,53,11.90
2010,03,24,12,54,11.90
2010,03,24,12,55,11.90
2010,03,24,12,56,11.90
2010,03,24,12,57,11.90
2010,03,24,12,58,12.00
2010,03,24,12,59,12.00
2010,03,24,13,00,12.10
2010,03,24,13,01,12.10
2010,03,24,13,02,12.20
2010,03,24,13,03,12.20
2010,03,24,13,04,12.20
2010,03,24,13,05,12.20
2010,03,24,13,06,12.20
2010,03,24,13,07,12.20
2010,03,24,13,08,12.20
2010,03,24,13,09,12.20
2010,03,24,13,10,12.30
2010,03,24,13,11,12.30
2010,03,24,13,12,12.30
2010,03,24,13,13,12.30
2010,03,24,13,14,12.40
2010,03,24,13,15,12.40
2010,03,24,13,16,12.50
2010,03,24,13,17,12.50
2010,03,24,13,18,12.50
2010,03,24,13,19,12.50
2010,03,24,13,20,12.50
2010,03,24,13,21,12.50
2010,03,24,13,22,12.50
2010,03,24,13,23,12.50
2010,03,24,13,24,12.50
2010,03,24,13,25,12.60
2010,03,24,13,26,12.60
2010,03,24,13,27,12.60
2010,03,24,13,28,12.70
2010,03,24,13,29,12.60
2010,03,24,13,30,12.60
2010,03,24,13,31,12.50
2010,03,24,13,32,12.50
2010,03,24,13,33,12.50
2010,03,24,13,34,12.50
2010,03,24,13,35,12.40
2010,03,24,13,36,12.50
2010,03,24,13,37,12.50
2010,03,24,13,38,12.40
2010,03,24,13,39,12.40
2010,03,24,13,40,12.40
2010,03,24,13,41,12.50
2010,03,24,13,42,12.50
2010,03,24,13,43,12.60
2010,03,24,13,44,12.70
2010,03,24,13,45,12.70
2010,03,24,13,46,12.70
2010,03,24,13,47,12.70
2010,03,24,13,48,12.80
2010,03,24,13,49,12.80
2010,03,24,13,50,12.80
2010,03,24,13,51,12.80
2010,03,24,13,52,12.80
2010,03,24,13,53,12.80
2010,03,24,13,54,12.70
2010,03,24,13,55,12.70
2010,03,24,13,56,12.70
2010,03,24,13,57,12.60
2010,03,24,13,58,12.70
2010,03,24,13,59,12.70
2010,03,24,14,00,12.70
2010,03,24,14,01,12.70
2010,03,24,14,02,12.70
2010,03,24,14,03,12.70
2010,03,24,14,04,12.80
2010,03,24,14,05,12.80
2010,03,24,14,06,12.80
2010,03,24,14,07,12.70
2010,03,24,14,08,12.70
2010,03,24,14,09,12.70
2010,03,24,14,10,12.70
2010,03,24,14,11,12.70
2010,03,24,14,12,12.70
2010,03,24,14,13,12.70
2010,03,24,14,14,12.80
2010,03,24,14,15,12.80
2010,03,24,14,16,12.90
2010,03,24,14,17,12.90
2010,03,24,14,18,12.90
2010,03,24,14,19,13.00
2010,03,24,14,20,13.00
2010,03,24,14,21,12.90
2010,03,24,14,22,12.90
2010,03,24,14,23,12.80
2010,03,24,14,24,12.80
2010,03,24,14,25,12.80
2010,03,24,14,26,12.80
2010,03,24,14,27,12.80
2010,03,24,14,28,12.70
2010,03,24,14,29,12.70
2010,03,24,14,30,12.70
2010,03,24,14,31,12.70
2010,03,24,14,32,12.70
2010,03,24,14,33,12.70
2010,03,24,14,34,12.70
2010,03,24,14,35,12.70
2010,03,24,14,36,12.70
2010,03,24,14,37,12.70
2010,03,24,14,38,12.70
2010,03,24,14,39,12.70
2010,03,24,14,40,12.70
2010,03,24,14,41,12.70
2010,03,24,14,42,12.70
2010,03,24,14,43,12.70
2010,03,24,14,44,12.70
2010,03,24,14,45,12.70
2010,03,24,14,46,12.70
2010,03,24,14,47,12.70
2010,03,24,14,48,12.70
2010,03,24,14,49,12.80
2010,03,24,14,50,12.80
2010,03,24,14,51,12.80
2010,03,24,14,52,12.80
2010,03,24,14,53,12.80
2010,03,24,14,54,12.80
2010,03,24,14,55,12.80
2010,03,24,14,56,12.70
2010,03,24,14,57,12.70
2010,03,24,14,58,12.70
2010,03,24,14,59,12.70
2010,03,24,15,00,12.80
2010,03,24,15,01,12.80
2010,03,24,15,02,12.90
2010,03,24,15,03,12.90
2010,03,24,15,04,12.90
2010,03,24,15,05,12.90
2010,03,24,15,06,12.90
2010,03,24,15,07,12.90
2010,03,24,15,08,12.90
2010,03,24,15,09,12.90
2010,03,24,15,10,12.80
2010,03,24,15,11,12.80
2010,03,24,15,12,12.80
2010,03,24,15,13,12.80
2010,03,24,15,14,12.90
2010,03,24,15,15,12.90
2010,03,24,15,16,13.00
2010,03,24,15,17,13.00
2010,03,24,15,18,13.00
2010,03,24,15,19,12.90
2010,03,24,15,20,12.90
2010,03,24,15,21,12.90
2010,03,24,15,22,12.90
2010,03,24,15,23,12.90
2010,03,24,15,24,13.00
2010,03,24,15,25,13.00
2010,03,24,15,26,13.10
2010,03,24,15,27,13.10
2010,03,24,15,28,13.10
2010,03,24,15,29,13.10
2010,03,24,15,30,13.10
2010,03,24,15,31,13.10
2010,03,24,15,32,13.20
2010,03,24,15,33,13.20
2010,03,24,15,34,13.10
2010,03,24,15,35,13.10
2010,03,24,15,36,13.10
2010,03,24,15,37,13.10
2010,03,24,15,38,13.10
2010,03,24,15,39,13.00
2010,03,24,15,40,13.00
2010,03,24,15,41,13.00
2010,03,24,15,42,13.00
2010,03,24,15,43,13.00
2010,03,24,15,44,13.00
2010,03,24,15,45,13.00
2010,03,24,15,46,12.90
2010,03,24,15,47,13.00
2010,03,24,15,48,13.00
2010,03,24,15,49,13.00
2010,03,24,15,50,13.10
2010,03,24,15,51,13.10
2010,03,24,15,52,13.20
2010,03,24,15,53,13.30
2010,03,24,15,54,13.30
2010,03,24,15,55,13.40
2010,03,24,15,56,13.40
2010,03,24,15,57,13.50
2010,03,24,15,58,13.50
2010,03,24,15,59,13.60
2010,03,24,16,00,13.60
2010,03,24,16,01,13.60
2010,03,24,16,02,13.60
2010,03,24,16,03,13.60
2010,03,24,16,04,13.60
2010,03,24,16,05,13.70
2010,03,24,16,06,13.70
2010,03,24,16,07,13.70
2010,03,24,16,08,13.70
2010,03,24,16,09,13.70
2010,03,24,16,10,13.70
2010,03,24,16,11,13.70
2010,03,24,16,12,13.70
2010,03,24,16,13,13.80
2010,03,24,16,14,13.80
2010,03,24,16,15,13.80
2010,03,24,16,16,13.80
2010,03,24,16,17,13.90
2010,03,24,16,18,13.90
2010,03,24,16,19,14.00
2010,03,24,16,20,14.00
2010,03,24,16,21,14.10
2010,03,24,16,22,14.10
2010,03,24,16,23,14.10
2010,03,24,16,24,14.10
2010,03,24,16,25,14.00
2010,03,24,16,26,14.10
2010,03,24,16,27,14.10
2010,03,24,16,28,14.00
2010,03,24,16,29,14.10
2010,03,24,16,30,14.10
2010,03,24,16,31,14.00
2010,03,24,16,32,14.00
2010,03,24,16,33,14.00
2010,03,24,16,34,14.00
2010,03,24,16,35,14.10
2010,03,24,16,36,14.10
2010,03,24,16,37,14.10
2010,03,24,16,38,14.10
2010,03,24,16,39,14.10
2010,03,24,16,40,14.20
2010,03,24,16,41,14.10
2010,03,24,16,42,14.10
2010,03,24,16,43,14.10
2010,03,24,16,44,14.10
2010,03,24,16,45,14.10
2010,03,24,16,46,14.10
2010,03,24,16,47,14.10
2010,03,24,16,48,14.10
2010,03,24,16,49,14.10
2010,03,24,16,50,14.10
2010,03,24,16,51,14.10
2010,03,24,16,52,14.20
2010,03,24,16,53,14.20
2010,03,24,16,54,14.20
2010,03,24,16,55,14.20
2010,03,24,16,56,14.30
2010,03,24,16,57,14.30
2010,03,24,16,58,14.20
2010,03,24,16,59,14.20
2010,03,24,17,00,14.20
2010,03,24,17,01,14.20
2010,03,24,17,02,14.10
2010,03,24,17,03,14.10
2010,03,24,17,04,14.10
2010,03,24,17,05,14.10
2010,03,24,17,06,14.10
2010,03,24,17,07,14.00
2010,03,24,17,08,14.00
2010,03,24,17,09,14.00
2010,03,24,17,10,13.90
2010,03,24,17,11,13.90
2010,03,24,17,12,13.90
2010,03,24,17,13,13.90
2010,03,24,17,14,13.90
2010,03,24,17,15,13.90
2010,03,24,17,16,13.90
2010,03,24,17,17,13.90
2010,03,24,17,18,13.90
2010,03,24,17,19,13.90
2010,03,24,17,20,13.90
2010,03,24,17,21,13.90
2010,03,24,17,22,14.00
2010,03,24,17,23,14.00
2010,03,24,17,24,14.00
2010,03,24,17,25,14.10
2010,03,24,17,26,14.10
2010,03,24,17,27,14.10
2010,03,24,17,28,14.10
2010,03,24,17,29,14.10
2010,03,24,17,30,14.20
2010,03,24,17,31,14.20
2010,03,24,17,32,14.20
2010,03,24,17,33,14.20
2010,03,24,17,34,14.20
2010,03,24,17,35,14.30
2010,03,24,17,36,14.30
2010,03,24,17,37,14.30
2010,03,24,17,38,14.30
2010,03,24,17,39,14.30
2010,03,24,17,40,14.30
2010,03,24,17,41,14.30
2010,03,24,17,42,14.30
2010,03,24,17,43,14.30
2010,03,24,17,44,14.40
2010,03,24,17,45,14.40
2010,03,24,17,46,14.40
2010,03,24,17,47,14.40
2010,03,24,17,48,14.30
2010,03,24,17,49,14.30